Home > Weather > Greeley > Past weeks

Flag for U.S.A. Weather for the Past 2 Weeks in Greeley, Colorado, U.S.A.

Now
30 °F

Sunny.


Feels Like: 23 °F
Forecast: 15 / 41 °F
Wind: 8 mph from East

Location: Greeley / Weld

Current Time: Feb 7, 2016 at 5:49:14 PM

Latest Report: Feb 7, 2016 at 4:55 PM


Visibility: 10 mi

Pressure: 30.32 "Hg (25.36 "Hg at 1424m altitude)

Humidity: 75%

Dew point: 23 °F

Location of GreeleyLocation

Historic Weather in Greeley — Graph

°F

Greeley Temperature Yesterday

Maximum temperature yesterday: 36 °F (at 1:55 PM)
Minimum temperature yesterday: 0 °F (at 1:35 AM)
Average temperature yesterday: 16 °F

High & Low Weather Summary for the Past Weeks

 TemperatureHumidityPressure
High54 °F (Jan 29, 1:35 PM)100% (Jan 26, 4:15 AM)30.36 "Hg (Jan 26, 4:15 AM)
Low-11 °F (Feb 4, 3:15 AM)35% (Jan 29, 1:35 PM)29.49 "Hg (Jan 30, 2:15 PM)
Average24 °F77%29.99 "Hg
* Reported Jan 23 3:15 PM — Feb 7 3:55 PM, Greeley, Weather by CustomWeather, © 2016

Note: Actual official high and low records may vary slightly from our data, if they occured in-between our weather recording intervals... More about our weather records

Advertising

Greeley Weather History for the Previous 24 Hours

 ConditionsComfort  
Time TempWeatherWind HumidityBarometerVisibility
3:55 PM
Sun, Feb 7
30 °FSunny.12 mph75%30.30 "Hg10 mi
3:35 PM32 °FSunny.14 mph75%30.29 "Hg10 mi
2:55 PM34 °FSunny.10 mph75%30.28 "Hg10 mi
2:35 PM34 °FSunny.14 mph70%30.28 "Hg10 mi
1:55 PM34 °FSunny.16 mph70%30.27 "Hg10 mi
1:35 PM36 °FSunny.16 mph65%30.28 "Hg10 mi
1:15 PM36 °FSunny.12 mph70%30.28 "Hg10 mi
12:55 PM36 °FSunny.9 mph70%30.28 "Hg10 mi
12:35 PM36 °FSunny.12 mph65%30.30 "Hg10 mi
12:15 PM34 °FSunny.12 mph70%30.31 "Hg10 mi
11:55 AM34 °FSunny.9 mph70%30.33 "Hg10 mi
11:35 AM32 °FPassing clouds.7 mph75%30.34 "Hg10 mi
11:15 AM32 °FPassing clouds.7 mph69%30.35 "Hg10 mi
10:55 AM32 °FSunny.9 mph75%30.34 "Hg10 mi
10:35 AM32 °FSunny.7 mph69%30.34 "Hg10 mi
10:15 AM32 °FSunny.7 mph64%30.34 "Hg10 mi
9:55 AM30 °FSunny.9 mph69%30.33 "Hg10 mi
9:35 AM30 °FSunny.7 mph69%30.33 "Hg10 mi
9:15 AM30 °FSunny.5 mph69%30.32 "Hg10 mi
8:35 AM27 °FSunny.8 mph69%30.29 "Hg10 mi
8:15 AM25 °FSunny.8 mph69%30.28 "Hg10 mi
7:55 AM21 °FSunny.10 mph80%30.27 "Hg10 mi
7:35 AM19 °FSunny.8 mph73%30.25 "Hg10 mi
7:15 AM19 °FSunny.7 mph73%30.24 "Hg10 mi
6:55 AM23 °FClear.8 mph74%30.22 "Hg10 mi
6:35 AM21 °FClear.12 mph80%30.21 "Hg10 mi
6:15 AM25 °FClear.7 mph69%30.20 "Hg10 mi
5:55 AM25 °FClear.10 mph50%30.19 "Hg10 mi
5:35 AM30 °FClear.7 mph47%30.18 "Hg10 mi
5:15 AM36 °FClear.6 mph41%30.17 "Hg10 mi
4:55 AM36 °FClear.10 mph48%30.16 "Hg10 mi
4:35 AM30 °FClear.10 mph59%30.16 "Hg10 mi
4:15 AM28 °FClear.9 mph55%30.16 "Hg10 mi
3:55 AM30 °FClear.13 mph55%30.15 "Hg10 mi
3:35 AM27 °FClear.10 mph54%30.15 "Hg10 mi
3:15 AM30 °FClear.10 mph47%30.14 "Hg10 mi
2:55 AM37 °FClear.9 mph41%30.13 "Hg10 mi
2:35 AM37 °FClear.6 mph41%30.13 "Hg10 mi
2:15 AM36 °FClear.8 mph48%30.13 "Hg10 mi
1:55 AM37 °FClear.22 mph45%30.11 "Hg10 mi
1:35 AM37 °FClear.No wind45%30.12 "HgN/A
1:15 AM36 °FClear.No wind41%30.10 "Hg10 mi
12:55 AM36 °FClear.3 mph44%30.10 "HgN/A
12:35 AM37 °FClear.No wind45%30.10 "Hg10 mi
12:15 AM30 °FClear.8 mph55%30.11 "Hg10 mi
11:55 PM
Sat, Feb 6
30 °FClear.5 mph64%30.10 "Hg10 mi
11:35 PM25 °FClear.8 mph69%30.10 "Hg10 mi
11:15 PM25 °FClear.6 mph74%30.11 "Hg10 mi
10:55 PM25 °FClear.7 mph69%30.11 "Hg10 mi
10:35 PM25 °FClear.6 mph63%30.10 "Hg10 mi
10:15 PM25 °FClear.No wind59%30.09 "Hg10 mi
9:55 PM28 °FClear.No wind74%30.10 "Hg10 mi
9:35 PM27 °FClear.6 mph74%30.09 "Hg10 mi
9:15 PM28 °FClear.7 mph64%30.10 "Hg10 mi
8:55 PM25 °FClear.8 mph69%30.10 "Hg10 mi
8:15 PM27 °FClear.No wind74%30.10 "Hg10 mi
7:55 PM25 °FClear.7 mph80%30.10 "Hg10 mi
7:35 PM23 °FClear.3 mph80%30.09 "Hg10 mi
7:15 PM23 °FClear.9 mph80%30.10 "Hg10 mi
6:35 PM23 °FClear.7 mph74%30.09 "Hg10 mi
6:15 PM25 °FClear.5 mph74%30.09 "Hg10 mi
5:55 PM25 °FClear.No wind74%30.10 "Hg10 mi
5:15 PM27 °FSunny.6 mph80%30.09 "Hg10 mi
Weather by CustomWeather, © 2016

See weather overviewHow to use our weather pages